Time,TemperatureF,DewpointF,PressureIn,WindDirection,WindDirectionDegrees,WindSpeedMPH,WindSpeedGustMPH,Humidity,HourlyPrecipIn,Conditions,Clouds,dailyrainin,SolarRadiationWatts/m^2,SoftwareType,DateUTC
2013-08-12 01:43:00,58.0,47.0,-100.00,SE,137,6.0,9.0,67,-99.99,,,0.00,0.000000,,2013-08-12 08:43:00,
2013-08-12 01:53:00,58.0,47.0,-100.00,SE,137,6.0,9.0,67,-99.99,,,0.00,0.000000,,2013-08-12 08:53:00,
2013-08-12 02:02:00,58.0,47.0,-100.00,SE,137,6.0,9.0,67,-99.99,,,0.00,0.000000,,2013-08-12 09:02:00,
2013-08-12 02:11:00,58.0,47.0,-100.00,SE,137,6.0,9.0,67,-99.99,,,0.00,0.000000,,2013-08-12 09:11:00,
2013-08-12 02:43:00,56.0,47.0,-100.00,SSE,155,5.0,8.0,72,0.00,,,0.00,0.000000,,2013-08-12 09:43:00,
2013-08-12 02:53:00,56.0,47.0,-100.00,SSE,155,5.0,8.0,72,0.00,,,0.00,0.000000,,2013-08-12 09:53:00,
2013-08-12 03:01:00,56.0,47.0,-100.00,SSE,155,5.0,8.0,72,0.00,,,0.00,0.000000,,2013-08-12 10:01:00,
2013-08-12 03:11:00,56.0,47.0,-100.00,SSE,155,5.0,8.0,72,0.00,,,0.00,0.000000,,2013-08-12 10:11:00,
2013-08-12 03:43:00,52.0,47.0,-100.00,South,170,3.0,8.0,83,0.00,,,0.00,0.000000,,2013-08-12 10:43:00,
2013-08-12 03:52:00,52.0,47.0,-100.00,South,170,3.0,8.0,83,0.00,,,0.00,0.000000,,2013-08-12 10:52:00,
2013-08-12 04:02:00,52.0,47.0,-100.00,South,170,3.0,8.0,83,0.00,,,0.00,0.000000,,2013-08-12 11:02:00,
2013-08-12 04:12:00,52.0,47.0,-100.00,South,170,3.0,8.0,83,0.00,,,0.00,0.000000,,2013-08-12 11:12:00,
2013-08-12 06:43:00,45.0,43.0,-100.00,SSW,209,1.0,5.0,94,-99.99,,,0.00,16.000000,,2013-08-12 13:43:00,
2013-08-12 06:53:00,45.0,43.0,-100.00,SSW,209,1.0,5.0,94,-99.99,,,0.00,16.000000,,2013-08-12 13:53:00,
2013-08-12 07:01:00,45.0,43.0,-100.00,SSW,209,1.0,5.0,94,-99.99,,,0.00,16.000000,,2013-08-12 14:01:00,
2013-08-12 07:11:00,45.0,43.0,-100.00,SSW,209,1.0,5.0,94,-99.99,,,0.00,16.000000,,2013-08-12 14:11:00,
2013-08-12 07:42:00,59.0,51.0,-100.00,SW,232,0.0,3.0,74,0.00,,,0.00,175.000000,,2013-08-12 14:42:00,
2013-08-12 07:52:00,59.0,51.0,-100.00,SW,232,0.0,3.0,74,0.00,,,0.00,175.000000,,2013-08-12 14:52:00,
2013-08-12 08:02:00,59.0,51.0,-100.00,SW,232,0.0,3.0,74,0.00,,,0.00,175.000000,,2013-08-12 15:02:00,
2013-08-12 08:11:00,59.0,51.0,-100.00,SW,232,0.0,3.0,74,0.00,,,0.00,175.000000,,2013-08-12 15:11:00,
2013-08-12 08:43:00,69.0,52.0,-100.00,ESE,122,4.0,6.0,54,0.00,,,0.00,380.000000,,2013-08-12 15:43:00,
2013-08-12 08:52:00,69.0,52.0,-100.00,ESE,122,4.0,6.0,54,0.00,,,0.00,380.000000,,2013-08-12 15:52:00,
2013-08-12 09:01:00,69.0,52.0,-100.00,ESE,122,4.0,6.0,54,0.00,,,0.00,380.000000,,2013-08-12 16:01:00,
2013-08-12 09:11:00,69.0,52.0,-100.00,ESE,122,4.0,6.0,54,0.00,,,0.00,380.000000,,2013-08-12 16:11:00,
2013-08-12 09:43:00,74.0,37.0,-100.00,SW,218,7.0,12.0,26,0.00,,,0.00,591.000000,,2013-08-12 16:43:00,
2013-08-12 09:53:00,74.0,37.0,-100.00,SW,218,7.0,12.0,26,0.00,,,0.00,591.000000,,2013-08-12 16:53:00,
2013-08-12 10:01:00,74.0,37.0,-100.00,SW,218,7.0,12.0,26,0.00,,,0.00,591.000000,,2013-08-12 17:01:00,
2013-08-12 10:11:00,74.0,37.0,-100.00,SW,218,7.0,12.0,26,0.00,,,0.00,591.000000,,2013-08-12 17:11:00,
2013-08-12 10:43:00,75.0,37.0,-100.00,SSW,209,9.0,17.0,25,0.00,,,0.00,771.000000,,2013-08-12 17:43:00,
2013-08-12 10:52:00,75.0,37.0,-100.00,SSW,209,9.0,17.0,25,0.00,,,0.00,771.000000,,2013-08-12 17:52:00,
2013-08-12 11:01:00,75.0,37.0,-100.00,SSW,209,9.0,17.0,25,0.00,,,0.00,771.000000,,2013-08-12 18:01:00,
2013-08-12 11:11:00,75.0,37.0,-100.00,SSW,209,9.0,17.0,25,0.00,,,0.00,771.000000,,2013-08-12 18:11:00,
2013-08-12 11:43:00,76.0,37.0,-100.00,SSW,210,6.0,17.0,24,0.00,,,0.00,826.000000,,2013-08-12 18:43:00,
2013-08-12 11:52:00,76.0,37.0,-100.00,SSW,210,6.0,17.0,24,0.00,,,0.00,826.000000,,2013-08-12 18:52:00,
2013-08-12 12:01:00,76.0,37.0,-100.00,SSW,210,6.0,17.0,24,0.00,,,0.00,826.000000,,2013-08-12 19:01:00,
2013-08-12 12:11:00,76.0,37.0,-100.00,SSW,210,6.0,17.0,24,0.00,,,0.00,826.000000,,2013-08-12 19:11:00,
2013-08-12 12:43:00,78.0,37.0,-100.00,SSW,202,6.0,18.0,23,0.00,,,0.00,909.000000,,2013-08-12 19:43:00,
2013-08-12 12:52:00,78.0,37.0,-100.00,SSW,202,6.0,18.0,23,0.00,,,0.00,909.000000,,2013-08-12 19:52:00,
2013-08-12 13:02:00,78.0,37.0,-100.00,SSW,202,6.0,18.0,23,0.00,,,0.00,909.000000,,2013-08-12 20:02:00,
2013-08-12 13:11:00,78.0,37.0,-100.00,SSW,202,6.0,18.0,23,0.00,,,0.00,909.000000,,2013-08-12 20:11:00,
2013-08-12 13:42:00,78.0,38.0,-100.00,SW,217,7.0,18.0,24,0.00,,,0.00,722.000000,,2013-08-12 20:42:00,
2013-08-12 13:52:00,78.0,38.0,-100.00,SW,217,7.0,18.0,24,0.00,,,0.00,722.000000,,2013-08-12 20:52:00,
2013-08-12 14:01:00,78.0,38.0,-100.00,SW,217,7.0,18.0,24,0.00,,,0.00,722.000000,,2013-08-12 21:01:00,
2013-08-12 14:12:00,78.0,38.0,-100.00,SW,217,7.0,18.0,24,0.00,,,0.00,722.000000,,2013-08-12 21:12:00,
2013-08-12 14:43:00,81.0,42.0,-100.00,SSE,156,6.0,19.0,25,0.00,,,0.00,752.000000,,2013-08-12 21:43:00,
2013-08-12 14:52:00,81.0,42.0,-100.00,SSE,156,6.0,19.0,25,0.00,,,0.00,752.000000,,2013-08-12 21:52:00,
2013-08-12 15:02:00,81.0,42.0,-100.00,SSE,156,6.0,19.0,25,0.00,,,0.00,752.000000,,2013-08-12 22:02:00,
2013-08-12 15:11:00,81.0,42.0,-100.00,SSE,156,6.0,19.0,25,0.00,,,0.00,752.000000,,2013-08-12 22:11:00,
2013-08-12 15:43:00,79.0,40.0,-100.00,SW,214,8.0,20.0,25,0.00,,,0.00,567.000000,,2013-08-12 22:43:00,
2013-08-12 15:53:00,79.0,40.0,-100.00,SW,214,8.0,20.0,25,0.00,,,0.00,567.000000,,2013-08-12 22:53:00,
2013-08-12 16:02:00,79.0,40.0,-100.00,SW,214,8.0,20.0,25,0.00,,,0.00,567.000000,,2013-08-12 23:02:00,
2013-08-12 16:11:00,79.0,40.0,-100.00,SW,214,8.0,20.0,25,0.00,,,0.00,567.000000,,2013-08-12 23:11:00,
2013-08-12 16:43:00,79.0,41.0,-100.00,SSE,150,9.0,15.0,26,0.00,,,0.00,467.000000,,2013-08-12 23:43:00,
2013-08-12 16:53:00,79.0,41.0,-100.00,SSE,150,9.0,15.0,26,0.00,,,0.00,467.000000,,2013-08-12 23:53:00,
2013-08-12 17:02:00,79.0,41.0,-100.00,SSE,150,9.0,15.0,26,0.00,,,0.00,467.000000,,2013-08-13 00:02:00,
2013-08-12 17:12:00,79.0,41.0,-100.00,SSE,150,9.0,15.0,26,0.00,,,0.00,467.000000,,2013-08-13 00:12:00,
2013-08-12 17:45:00,79.0,39.0,-100.00,WSW,244,10.0,18.0,24,0.00,,,0.00,494.000000,,2013-08-13 00:45:00,
2013-08-12 17:53:00,79.0,39.0,-100.00,WSW,244,10.0,18.0,24,0.00,,,0.00,494.000000,,2013-08-13 00:53:00,
2013-08-12 18:03:00,79.0,39.0,-100.00,WSW,244,10.0,18.0,24,0.00,,,0.00,494.000000,,2013-08-13 01:03:00,
2013-08-12 18:13:00,79.0,39.0,-100.00,WSW,244,10.0,18.0,24,0.00,,,0.00,494.000000,,2013-08-13 01:13:00,
2013-08-12 18:42:00,75.0,41.0,-100.00,NW,305,4.0,13.0,30,0.00,,,0.00,109.000000,,2013-08-13 01:42:00,
2013-08-12 18:55:00,75.0,41.0,-100.00,NW,305,4.0,13.0,30,0.00,,,0.00,109.000000,,2013-08-13 01:55:00,
2013-08-12 19:02:00,75.0,41.0,-100.00,NW,305,4.0,13.0,30,0.00,,,0.00,109.000000,,2013-08-13 02:02:00,
2013-08-12 19:11:00,75.0,41.0,-100.00,NW,305,4.0,13.0,30,0.00,,,0.00,109.000000,,2013-08-13 02:11:00,